FW8840 Weather Reports


time (UTC)temp
C
wind
direction
speed
KPH
gust
KPH
rain 1hr
cm
rain 24hr
cm
rain mn
cm
humidity
%
barometer
mb
20260508055531 15 195 6.4 6.4 0.00 0.00 0.00 87 1016.9
20260508054530 15 78 3.2 6.4 0.00 0.00 0.00 87 1016.7
20260508053531 14 97 4.8 8.0 0.00 0.00 0.00 88 1016.8
20260508052530 13 90 4.8 9.7 0.00 0.00 0.00 91 1016.8
20260508051530 14 89 4.8 8.0 0.00 0.00 0.00 92 1016.9
20260508050530 14 189 1.6 6.4 0.00 0.00 0.00 93 1016.9
20260508045530 14 202 3.2 6.4 0.00 0.00 0.00 94 1016.7
20260508044530 13 202 3.2 6.4 0.00 0.00 0.00 94 1016.6
20260508043530 13 198 8.0 8.0 0.00 0.00 0.00 95 1016.5
20260508042530 13 180 6.4 6.4 0.00 0.00 0.00 95 1016.4
20260508041530 12 180 4.8 6.4 0.00 0.00 0.00 95 1016.4
20260508040529 12 225 1.6 3.2 0.00 0.00 0.00 95 1016.4
20260508035530 12 225 1.6 3.2 0.00 0.00 0.00 94 1016.4
20260508034529 12 225 1.6 1.6 0.00 0.00 0.00 94 1016.5
20260508033529 12 225 3.2 6.4 0.00 0.00 0.00 94 1016.5
20260508032549 12 225 1.6 6.4 0.00 0.00 0.00 94 1016.6
20260508031530 12 225 1.6 3.2 0.00 0.00 0.00 94 1016.5
20260508030549 12 225 4.8 6.4 0.00 0.00 0.00 94 1016.3
20260508025529 12 225 6.4 6.4 0.00 0.00 0.00 94 1016.4
20260508024529 12 225 6.4 6.4 0.00 0.00 0.00 94 1016.4
20260508023529 12 208 8.0 9.7 0.00 0.00 0.00 94 1016.2
20260508022529 12 202 6.4 6.4 0.00 0.00 0.00 94 1016.2
20260508021529 12 202 6.4 6.4 0.00 0.00 0.00 94 1016.1
20260508020549 12 202 6.4 8.0 0.00 0.00 0.00 95 1016.1
20260508015549 12 202 6.4 6.4 0.00 0.00 0.00 95 1016.1
20260508014609 12 202 6.4 8.0 0.00 0.00 0.00 95 1016.2
20260508013529 12 202 3.2 6.4 0.00 0.00 0.00 94 1016.4
20260508012609 12 202 0.0 0.0 0.00 0.00 0.00 94 1016.5
20260508011529 13 202 3.2 6.4 0.00 0.00 0.00 94 1016.6
20260508010528 13 202 3.2 6.4 0.00 0.00 0.00 94 1016.6
20260508005528 13 202 6.4 6.4 0.00 0.00 0.00 94 1016.7
20260508004528 13 202 6.4 6.4 0.00 0.00 0.00 94 1016.7
20260508003528 13 202 6.4 6.4 0.00 0.00 0.00 94 1016.7
20260508002528 13 202 6.4 8.0 0.00 0.00 0.00 94 1016.7
20260508001528 13 202 6.4 6.4 0.00 0.00 0.00 94 1016.7
20260508000608 13 202 6.4 6.4 0.00 0.00 0.00 94 1016.9
20260507235528 13 202 4.8 6.4 0.00 0.00 0.00 95 1017.0
20260507234528 12 202 6.4 8.0 0.00 0.00 0.00 95 1017.0
20260507233528 12 202 4.8 6.4 0.00 0.00 0.00 95 1017.2
20260507232527 13 202 3.2 6.4 0.00 0.00 0.00 94 1017.3
20260507231527 13 202 0.0 1.6 0.00 0.00 0.00 93 1017.3
20260507230527 13 202 6.4 8.0 0.00 0.00 0.00 93 1017.4
20260507225528 13 202 4.8 6.4 0.00 0.00 0.00 93 1017.5
20260507224607 13 202 4.8 6.4 0.00 0.00 0.00 93 1017.6
20260507223527 13 202 6.4 6.4 0.00 0.00 0.00 94 1017.8
20260507222527 13 202 3.2 6.4 0.00 0.00 0.00 93 1017.8
20260507221527 13 202 3.2 6.4 0.00 0.00 0.00 93 1017.7
20260507220527 13 202 1.6 4.8 0.00 0.00 0.00 93 1017.7
20260507215547 13 202 1.6 6.4 0.00 0.00 0.00 92 1017.8
20260507214527 14 202 1.6 3.2 0.00 0.00 0.00 92 1017.8
20260507213527 13 202 3.2 6.4 0.00 0.00 0.00 92 1017.7
20260507212527 13 202 4.8 6.4 0.00 0.00 0.00 92 1017.8
20260507211527 13 202 6.4 9.7 0.00 0.00 0.00 92 1017.8
20260507210526 13 202 4.8 6.4 0.00 0.00 0.00 92 1017.7
20260507205527 13 202 4.8 6.4 0.00 0.00 0.00 91 1017.6
20260507204527 13 202 8.0 9.7 0.00 0.00 0.00 91 1017.6
20260507203527 13 202 4.8 6.4 0.00 0.00 0.00 90 1017.5
20260507202526 13 202 8.0 9.7 0.00 0.00 0.00 90 1017.5
20260507201526 13 190 6.4 9.7 0.00 0.00 0.00 89 1017.7
20260507200526 13 199 8.0 11.3 0.00 0.00 0.00 89 1017.6
20260507195546 13 180 6.4 6.4 0.00 0.00 0.00 89 1017.7
20260507194526 14 202 8.0 11.3 0.00 0.00 0.00 89 1017.7
20260507193526 14 198 8.0 11.3 0.00 0.00 0.00 89 1017.7
20260507192526 14 202 8.0 11.3 0.00 0.00 0.00 89 1017.7
20260507191526 14 202 4.8 9.7 0.00 0.00 0.00 88 1017.7
20260507190526 15 202 6.4 9.7 0.00 0.00 0.00 88 1017.8
20260507185526 15 202 3.2 6.4 0.00 0.00 0.00 87 1017.7
20260507184526 15 202 0.0 0.0 0.00 0.00 0.00 86 1017.5
20260507183526 15 202 0.0 4.8 0.00 0.00 0.00 85 1017.5
20260507182525 16 202 6.4 8.0 0.00 0.00 0.00 84 1017.6
20260507181525 16 202 3.2 6.4 0.00 0.00 0.00 84 1017.4
20260507180525 17 202 1.6 3.2 0.00 0.00 0.00 81 1017.2
20260507175525 17 202 3.2 6.4 0.00 0.00 0.00 81 1017.1
20260507174606 17 202 3.2 6.4 0.00 0.00 0.00 80 1017.0
20260507173527 17 202 1.6 3.2 0.00 0.00 0.00 79 1017.0
20260507172525 17 143 4.8 6.4 0.00 0.00 0.00 77 1016.9
20260507171525 18 90 4.8 6.4 0.00 0.00 0.00 79 1016.8
20260507170525 18 270 0.0 1.6 0.00 0.00 0.00 79 1017.2
20260507165525 18 270 0.0 1.6 0.00 0.00 0.00 79 1017.4
20260507164546 19 270 0.0 1.6 0.00 0.00 0.00 77 1017.5
20260507163525 19 270 0.0 1.6 0.00 0.00 0.00 74 1017.3
20260507162524 19 270 0.0 1.6 0.00 0.00 0.00 72 1017.2
20260507161525 20 270 1.6 3.2 0.00 0.00 0.00 71 1017.4
20260507160525 19 270 1.6 3.2 0.00 0.00 0.00 71 1017.4
20260507155525 19 270 1.6 4.8 0.00 0.00 0.00 71 1017.5
20260507154525 19 270 1.6 4.8 0.00 0.00 0.00 72 1017.3
20260507153545 19 270 1.6 4.8 0.00 0.00 0.00 69 1017.7
20260507152524 19 270 0.0 6.4 0.00 0.00 0.00 67 1017.7
20260507151524 19 270 1.6 6.4 0.00 0.00 0.00 68 1017.7
20260507150544 20 280 3.2 8.0 0.00 0.00 0.00 68 1017.7
20260507145524 20 283 4.8 11.3 0.00 0.00 0.00 69 1017.7
20260507144545 20 268 3.2 6.4 0.00 0.00 0.00 70 1017.6
20260507143524 21 292 4.8 11.3 0.00 0.00 0.00 69 1017.6
20260507142544 21 294 6.4 11.3 0.00 0.00 0.00 67 1017.7
20260507141524 22 288 6.4 9.7 0.00 0.00 0.00 68 1017.5
20260507140524 23 265 4.8 11.3 0.00 0.00 0.00 65 1017.4
20260507135524 23 299 4.8 9.7 0.00 0.00 0.00 61 1017.3
20260507134524 22 288 3.2 6.4 0.00 0.00 0.00 61 1017.3
20260507133524 21 259 1.6 6.4 0.00 0.00 0.00 64 1017.2
20260507132524 21 68 1.6 3.2 0.00 0.00 0.00 67 1017.3
20260507131524 20 45 1.6 3.2 0.00 0.00 0.00 67 1017.5
20260507130524 20 45 1.6 4.8 0.00 0.00 0.00 68 1017.7
20260507125524 20 45 1.6 6.4 0.00 0.00 0.00 70 1017.3
20260507124525 21 45 3.2 6.4 0.00 0.00 0.00 70 1017.6
20260507123524 21 45 3.2 6.4 0.00 0.00 0.00 68 1018.1
20260507122523 20 6 4.8 6.4 0.00 0.00 0.00 70 1018.3
20260507121523 19 316 1.6 4.8 0.00 0.00 0.00 72 1018.6
20260507120524 18 338 1.6 3.2 0.00 0.00 0.00 75 1018.8
20260507115523 18 30 1.6 3.2 0.00 0.00 0.00 80 1018.8
20260507114523 18 45 1.6 3.2 0.00 0.00 0.00 82 1018.8
20260507113524 18 338 1.6 6.4 0.00 0.00 0.00 81 1019.1
20260507112523 18 337 3.2 6.4 0.00 0.00 0.00 78 1019.2
20260507111523 19 292 1.6 6.4 0.00 0.00 0.00 76 1019.2
20260507110523 19 315 1.6 6.4 0.00 0.00 0.00 73 1019.2
20260507105523 19 338 3.2 6.4 0.00 0.00 0.00 72 1019.2
20260507104543 20 338 3.2 6.4 0.00 0.00 0.00 69 1019.1
20260507103543 20 310 1.6 4.8 0.00 0.00 0.00 64 1019.1
20260507102523 20 276 4.8 9.7 0.00 0.00 0.00 63 1019.2
20260507101603 20 292 3.2 6.4 0.00 0.00 0.00 64 1019.1
20260507100522 20 284 6.4 9.7 0.00 0.00 0.00 66 1019.2
20260507095522 20 280 6.4 9.7 0.00 0.00 0.00 62 1019.0
20260507094522 20 270 8.0 11.3 0.00 0.00 0.00 61 1018.7
20260507093543 21 286 8.0 11.3 0.00 0.00 0.00 62 1018.6
20260507092522 21 302 4.8 9.7 0.00 0.00 0.00 62 1018.3
20260507091522 21 273 4.8 9.7 0.00 0.00 0.00 63 1018.2
20260507090522 21 296 6.4 11.3 0.00 0.00 0.00 60 1018.1
20260507085522 21 310 6.4 8.0 0.00 0.00 0.00 59 1018.0
20260507084522 21 301 4.8 9.7 0.00 0.00 0.00 59 1017.9
20260507083523 21 316 4.8 8.0 0.00 0.00 0.00 59 1017.8
20260507082522 21 331 3.2 6.4 0.00 0.00 0.00 59 1017.7
20260507081522 21 279 4.8 9.7 0.00 0.00 0.00 58 1017.6
20260507080522 21 263 4.8 6.4 0.00 0.00 0.00 59 1017.6
20260507075522 20 273 3.2 6.4 0.00 0.00 0.00 60 1017.4
20260507074522 21 272 4.8 6.4 0.00 0.00 0.00 62 1017.4
20260507073522 21 309 3.2 6.4 0.00 0.00 0.00 61 1017.3
20260507072522 20 304 4.8 6.4 0.00 0.00 0.00 61 1017.2
20260507071522 20 345 3.2 6.4 0.00 0.00 0.00 63 1017.2
20260507070522 20 324 4.8 9.7 0.00 0.00 0.00 68 1017.2
20260507065522 20 297 4.8 6.4 0.00 0.00 0.00 68 1017.3
20260507064542 20 333 6.4 9.7 0.00 0.00 0.00 66 1017.4
20260507063522 21 295 4.8 8.0 0.00 0.00 0.00 65 1017.4
20260507062522 21 334 3.2 6.4 0.00 0.00 0.00 62 1017.3
20260507061602 21 311 1.6 6.4 0.00 0.00 0.00 65 1017.1
20260507060533 21 45 1.6 3.2 0.00 0.00 0.00 63 1017.1